Date,TemperatureHighF,TemperatureAvgF,TemperatureLowF,DewpointHighF,DewpointAvgF,DewpointLowF,HumidityHigh,HumidityAvg,HumidityLow,PressureMaxIn,PressureMinIn,WindSpeedMaxMPH,WindSpeedAvgMPH,GustSpeedMaxMPH,PrecipitationSumIn
2013-2-1,20.0,16.8,13.7,15.7,12.6,9.5,93,83,67,30.02,29.50,17,9,33,0.00
2013-2-2,16.3,12.7,6.2,11.8,9.2,3.9,93,86,76,30.04,29.86,10,3,33,0.00
2013-2-3,24.9,13.0,-2.6,17.6,9.2,-5.3,94,85,64,29.86,29.64,10,1,33,0.00
2013-2-4,17.9,14.1,8.1,15.7,11.3,6.2,93,88,81,29.79,29.66,13,6,33,0.00
2013-2-5,23.9,15.7,9.4,16.2,11.5,7.5,93,84,68,29.85,29.72,3,0,33,0.01
2013-2-6,25.6,22.0,17.6,22.4,18.5,9.6,93,87,58,30.04,29.74,16,6,33,0.00
2013-2-7,24.8,21.3,18.2,13.6,11.3,8.7,70,65,60,30.27,30.13,11,5,12,0.00
2013-2-8,26.6,22.0,19.5,23.0,16.7,11.8,90,80,59,30.12,29.76,11,7,16,0.00
2013-2-11,38.6,35.1,32.1,36.5,32.9,28.1,96,91,84,29.57,29.48,20,8,23,0.09
2013-2-12,32.6,30.5,27.4,28.9,26.6,23.9,93,86,75,29.78,29.53,18,10,26,0.00
2013-2-13,36.9,29.1,23.4,25.9,23.2,20.1,89,79,61,29.74,29.55,6,1,16,0.00
2013-2-14,23.0,19.4,14.7,20.3,17.0,12.8,93,90,88,29.67,29.59,0,0,16,0.00
2013-2-16,26.1,21.6,16.3,19.4,13.6,8.9,89,71,60,29.85,29.73,10,3,12,0.00
2013-2-17,16.3,12.0,8.5,9.3,6.2,2.8,90,78,67,29.90,29.67,25,11,31,0.01
2013-2-18,24.1,12.6,4.6,13.5,7.8,2.1,90,81,62,30.12,29.89,25,6,28,0.00
2013-2-19,37.5,29.1,20.7,32.6,24.1,12.7,98,82,64,29.96,29.49,15,7,22,0.03
2013-2-20,25.4,20.6,17.3,23.7,15.1,11.7,93,79,66,29.80,29.55,18,12,28,0.00
2013-2-21,17.6,14.1,10.3,16.2,11.8,8.0,94,90,88,30.28,29.77,16,9,26,0.00
2013-2-22,31.5,24.2,14.8,26.4,20.4,13.1,95,86,74,30.28,29.99,11,5,14,0.00
2013-2-23,35.9,33.4,28.8,35.0,31.3,23.5,99,92,80,29.99,29.67,12,6,15,0.07
2013-2-24,34.3,29.2,26.9,34.0,27.0,24.7,99,92,81,29.84,29.65,14,6,18,0.01
2013-2-25,35.7,29.4,20.5,31.6,27.4,19.3,98,92,82,30.11,29.84,10,5,18,0.00
2013-2-26,40.7,29.0,14.3,30.9,23.7,12.9,96,82,65,30.13,29.78,12,4,15,0.01
2013-2-27,34.8,32.1,28.6,33.7,31.1,27.6,99,96,86,29.79,29.39,15,7,22,0.29
2013-2-28,36.0,32.8,29.7,35.4,32.1,28.5,100,97,93,29.49,29.39,4,1,9,0.35